This demonstration page uses our WeatherBlox Daily Observations layout. Learn more.

Left ArrowRight Arrow

Hourly Observations for December 14, 2020

Temp ( °F °C ) Dew Point ( °F °C ) Humidity (%) Winds ( mph kmh ) Pressure ( in mb ) Visibility ( mi km ) Precip ( " mm )
12:53 am 00:53 Cloudy 39 3.9 33 0.6 79 79 E 3 6 30.06 1018 10 16 0.00 0.00
1:53 am 01:53 Cloudy 40 4.4 33 0.6 77 77 NE 3 6 30.03 1017 10 16 0.00 0.00
2:37 am 02:37 Cloudy 39 3.9 33 0.6 79 79 Calm 30.05 1018 10 16 0.00 0.00
2:53 am 02:53 Cloudy 39 3.9 33 0.6 79 79 NNE 3 6 30.01 1016 10 16 0.00 0.00
3:14 am 03:14 Cloudy 39 3.9 33 0.6 79 79 N 5 7 30.02 1017 10 16 0.00 0.00
3:40 am 03:40 Cloudy 39 3.9 33 0.6 79 79 NNW 5 7 30.03 1017 10 16 0.00 0.00
3:53 am 03:53 Cloudy 39 3.9 33 0.6 79 79 N 5 7 30.01 1016 10 16 0.00 0.00
4:14 am 04:14 Cloudy 39 3.9 33 0.6 79 79 Calm 30.04 1017 10 16 0.00 0.00
4:36 am 04:36 Cloudy 39 3.9 33 0.6 79 79 NNW 3 6 30.04 1017 10 16 0.00 0.00
4:53 am 04:53 Cloudy 39 3.9 33 0.6 79 79 NNW 6 9 30.03 1017 10 16 0.00 0.00
5:53 am 05:53 Cloudy 39 3.9 33 0.6 79 79 NW 6 9 30.05 1018 10 16 0.00 0.00
6:21 am 06:21 Cloudy 39 3.9 33 0.6 79 79 NW 6 9 30.06 1018 10 16 0.00 0.00
6:53 am 06:53 Cloudy 39 3.9 32 0 76 76 NW 10 17 30.06 1018 10 16 0.00 0.00
7:41 am 07:41 Cloudy 38 3.3 31 -0.6 76 76 NW 9 15 30.10 1019 10 16 0.00 0.00
7:53 am 07:53 Cloudy 38 3.3 31 -0.6 76 76 NW 7 11 30.08 1019 10 16 0.00 0.00
8:53 am 08:53 Cloudy 37 2.8 29 -1.7 73 73 NW 14 22 30.12 1020 10 16 0.00 0.00
9:53 am 09:53 Cloudy 35 1.7 29 -1.7 78 78 NW 10 17 30.17 1022 10 16 0.00 0.00
10:53 am 10:53 Cloudy 34 1.1 25 -3.9 70 70 WNW 14 22 30.21 1023 10 16 0.00 0.00
11:53 am 11:53 Cloudy 31 -0.6 22 -5.6 69 69 NNW 14 22 30.22 1023 10 16 0.00 0.00
12:53 pm 12:53 Cloudy 31 -0.6 23 -5 72 72 WNW 10 17 30.22 1023 10 16 0.00 0.00
1:53 pm 13:53 Cloudy 31 -0.6 22 -5.6 69 69 NW 13 20 30.23 1024 10 16 0.00 0.00
2:53 pm 14:53 Cloudy 32 0 22 -5.6 66 66 WNW 9 15 30.24 1024 10 16 0.00 0.00
3:31 pm 15:31 Cloudy 32 0 21 -6.1 64 64 NW 9 15 30.27 1025 10 16 0.00 0.00
3:53 pm 15:53 Cloudy 32 0 21 -6.1 64 64 WNW 8 13 30.26 1025 10 16 0.00 0.00
4:53 pm 16:53 Cloudy 32 0 21 -6.1 64 64 WNW 8 13 30.29 1026 10 16 0.00 0.00
5:53 pm 17:53 Cloudy 32 0 21 -6.1 64 64 NNW 3 6 30.29 1026 10 16 0.00 0.00
6:53 pm 18:53 Cloudy 30 -1.1 22 -5.6 72 72 Calm 30.31 1027 10 16 0.00 0.00
7:53 pm 19:53 Mostly Cloudy 28 -2.2 21 -6.1 75 75 NNW 5 7 30.35 1028 10 16 0.00 0.00
8:53 pm 20:53 Clear 25 -3.9 19 -7.2 78 78 Calm 30.36 1028 10 16 0.00 0.00
9:53 pm 21:53 Clear 22 -5.6 18 -7.8 85 85 Calm 30.36 1028 10 16 0.00 0.00
10:53 pm 22:53 Clear 20 -6.7 16 -8.9 85 85 Calm 30.37 1028 10 16 0.00 0.00
11:53 pm 23:53 Clear 20 -6.7 16 -8.9 85 85 Calm 30.36 1028 9 14 0.00 0.00

Powered by AerisWeather